Hurricane Symbol View the latest observations near East Pacific Tropical Storm Bud.

Station 46047 (LLNR 82) - TANNER BANK - 121 NM West of San Diego, CA Image indicating link to RSS feed of recent meteorological observations for station 46047


Conditions at 46047 as of
(5:00 pm PDT on 07/24/2024)
0000 GMT on 07/25/2024:
     

Click on the graph icon in the table below to see a time series plot of the last five days of that observation.

5-day plot - Wind Direction Wind Direction (WDIR): NW ( 310 deg true )
5-day plot - Wind Speed Wind Speed (WSPD): 11.7 kts
5-day plot - Wind Gust Wind Gust (GST): 15.5 kts
5-day plot - Atmospheric Pressure Atmospheric Pressure (PRES):30.02 in
5-day plot - Pressure Tendency Pressure Tendency (PTDY):-0.03 in ( Falling )
5-day plot - Air Temperature Air Temperature (ATMP): 62.1 °F
5-day plot - Water Temperature Water Temperature (WTMP): 64.0 °F
5-day plot - Dew Point Dew Point (DEWP): 62.1 °F
5-day plot - Wind Speed at 10 Meters Wind Speed at 10 meters (WSPD10M): 13.6 kts
5-day plot - Wind Speed at 20 Meters Wind Speed at 20 meters (WSPD20M): 13.6 kts
5-day plot -  Wind Speed, Wind Gust and Atmospheric Pressure Combined plot of Wind Speed, Gust, and Air Pressure
Supplemental Measurements
Highest 1-minute Wind Speed
Time (PDT)5-day plot - 1-Minute Wind Speed WSPD 5-day plot - 1-Minute Wind Direction WDIR
4:53 pm 13.6 kts-
Previous observations
TIME
(PDT)
5-day plot - Wind Direction
WDIR
 
5-day plot - Wind Speed
WSPD
kts
5-day plot - Wind Gust
GST
kts
5-day plot - Wave Height
WVHT
ft
5-day plot - Dominant Wave Period
DPD
sec
5-day plot - Average Wave Period
APD
sec
5-day plot - Mean Wave Direction
MWD
 
5-day plot - Atmospheric Pressure
PRES
in
5-day plot - Pressure Tendency
PTDY
in
5-day plot - Air Temperature
ATMP
°F
5-day plot - Water Temperature
WTMP
°F
5-day plot - Dew Point
DEWP
°F
5-day plot - Salinity
SAL
psu
5-day plot - Visibility
VIS
nmi
5-day plot - Tide (above MLLW)
TIDE
ft
2024-07-24 04:50 pmWNW 13.6 17.5 5.9 117.1NNW30.02- 62.1 64.0 62.1---
2024-07-24 04:40 pm NW 11.7 15.5----30.03- 62.2 64.0 62.2---
2024-07-24 04:10 pmWNW 13.6 15.5 5.9-7.2 NW30.03- 62.2 64.0 62.2---
2024-07-24 04:00 pmWNW 13.6 15.5----30.03-0.03 62.2 64.0 62.2---
2024-07-24 03:50 pmWNW 13.6 15.5 5.9 97.2NNW30.04- 62.2 64.0 62.2---
2024-07-24 03:40 pmWNW 13.6 15.5----30.04- 62.2 64.0 62.2---
2024-07-24 03:30 pmWNW 13.6 15.5----30.04- 62.2 64.0 62.2---
2024-07-24 03:20 pmWNW 11.7 15.5 5.9 107.2NNW30.05- 62.4 64.0 62.4---
2024-07-24 03:10 pmWNW 11.7 13.6 5.9-7.2NNW30.05- 62.2 64.0 62.2---
2024-07-24 03:00 pmWNW 11.7 15.5----30.06-0.02 62.2 64.0 62.2---
2024-07-24 02:50 pm NW 11.7 15.5 5.6 107.3 NW30.06- 62.2 64.0 62.2---
2024-07-24 02:40 pmWNW 11.7 13.6----30.06- 62.2 64.0 62.2---
2024-07-24 02:30 pmWNW 11.7 15.5----30.05- 62.2 64.0 62.2---
2024-07-24 02:20 pmWNW 11.7 13.6 5.2 117.6 NW30.05- 62.2 64.0 62.2---
2024-07-24 02:10 pmWNW 11.7 15.5 5.2-7.6 NW30.05- 62.2 64.0 62.2---
2024-07-24 02:00 pmWNW 11.7 13.6----30.05-0.02 62.2 64.0 62.2---
2024-07-24 01:50 pmWNW 11.7 13.6 5.9 117.9NNW30.06- 62.2 64.0 62.2---
2024-07-24 01:40 pmWNW 11.7 13.6----30.06- 62.2 64.0 62.2---
2024-07-24 01:30 pmWNW 11.7 13.6----30.06- 62.2 64.0 62.2---
2024-07-24 01:20 pmWNW 9.7 13.6 5.2 117.9NNW30.06- 62.2 64.0 62.2---
2024-07-24 01:10 pm NW 9.7 13.6 5.2-7.9NNW30.06- 62.2- 62.2---
2024-07-24 01:00 pmWNW 9.7 13.6----30.06-0.01 62.1 63.9 62.1---
2024-07-24 12:50 pmWNW 9.7 13.6 4.9 117.6 NW30.07- 62.1 63.9 62.1---
2024-07-24 12:40 pmWNW 9.7 11.7----30.07- 62.1 63.9 62.1---
2024-07-24 12:30 pm NW 9.7 13.6----30.07- 62.1 63.9 62.1---
2024-07-24 12:20 pm NW 9.7 11.7 5.2 117.8NNW30.08- 62.1 63.9 62.1---
2024-07-24 12:10 pm NW 9.7 13.6 5.2-7.8NNW30.08- 62.1 63.9 62.1---
2024-07-24 12:00 pmWNW 9.7 11.7----30.07+0.01 61.9 63.9 61.9---
2024-07-24 11:50 amWNW 9.7 13.6 5.2 118.0 NW30.08- 61.7 63.9 61.7---
2024-07-24 11:40 amWNW 9.7 13.6 5.2-8.0 NW30.07- 61.7 63.7 61.7---
2024-07-24 11:30 am NW 9.7 13.6----30.08- 61.7 63.7 61.7---
2024-07-24 11:20 amWNW 9.7 13.6 4.9 117.9NNW30.07- 61.7 63.7 61.7---
2024-07-24 11:10 amWNW 9.7 13.6 4.9-7.9NNW30.07- 61.5 63.7 61.5---
2024-07-24 11:00 amWNW 9.7 13.6----30.07+0.00 61.7 63.7 61.7---
2024-07-24 10:50 amWNW 9.7 11.7 4.9 117.7 NW30.08- 61.7 63.7 61.7---
2024-07-24 10:40 amWNW 9.7 13.6----30.07- 61.5 63.7 61.5---
2024-07-24 10:30 amWNW 9.7 13.6----30.08- 61.5 63.7 61.5---
2024-07-24 10:20 amWNW 9.7 11.7 4.9 118.2 NW30.08- 61.5 63.7 61.5---
2024-07-24 10:10 amWNW 9.7 11.7 4.9-8.2 NW30.08- 61.3 63.7 61.3---
2024-07-24 10:00 am NW 9.7 11.7----30.08+0.04 61.3 63.7 61.3---
2024-07-24 09:50 amWNW 9.7 11.7 5.2 108.2 NW30.08- 61.3 63.7 61.3---
2024-07-24 09:40 amWNW 9.7 11.7 5.2-8.2 NW30.08- 61.2 63.7 61.2---
2024-07-24 09:30 amWNW 9.7 11.7----30.07- 61.3 63.7 61.3---
2024-07-24 09:20 amWNW 9.7 11.7 5.2 118.1 NW30.07- 61.3 63.9 61.3---
2024-07-24 09:10 amWNW 9.7 11.7 5.2-8.1 NW30.07- 61.3 63.9 61.3---
2024-07-24 09:00 amWNW 9.7 13.6----30.07+0.05 61.3 63.9 61.3---
2024-07-24 08:50 amWNW 9.7 11.7 5.9 168.9SSE30.07- 61.2 63.9 61.2---
2024-07-24 08:40 amWNW 9.7 11.7 5.9-8.9SSE30.07- 61.2 63.9 61.2---
2024-07-24 08:30 amWNW 9.7 11.7----30.07- 61.2 63.9 61.2---
2024-07-24 08:20 am NW 9.7 11.7 5.2 108.2 NW30.06- 61.2 63.9 61.2---
2024-07-24 08:10 am NW 7.8 11.7 5.2-8.2 NW30.07- 61.2 63.9 61.2---
2024-07-24 08:00 amWNW 7.8 11.7----30.06+0.06 61.3- 61.3---
2024-07-24 07:50 am NW 7.8 11.7 5.2 117.9 NW30.06- 61.2 64.0 61.2---
2024-07-24 07:40 am NW 9.7 11.7----30.06- 61.0 64.0 61.0---
2024-07-24 07:30 amWNW 9.7 11.7----30.05- 61.2 64.0 61.2---
2024-07-24 07:20 amWNW 9.7 11.7 5.2 117.8 NW30.05- 61.2 64.0 61.2---
2024-07-24 07:10 am NW 7.8 11.7 5.2-7.8 NW30.05- 61.2 64.0 61.2---
2024-07-24 07:00 am NW 7.8 11.7----30.04+0.05 61.0 64.0 61.0---
2024-07-24 06:50 amWNW 7.8 11.7 5.2 107.7 NW30.04- 61.2 64.0 61.2---
2024-07-24 06:40 am NW 7.8 11.7----30.04- 61.0 64.0 61.0---
2024-07-24 06:30 am NW 7.8 11.7----30.03- 61.0 64.0 61.0---
2024-07-24 06:20 am NW 9.7 13.6 5.2 117.6NNW30.03- 61.0 64.0 61.0---
2024-07-24 06:10 amWNW 9.7 11.7 5.2-7.6NNW30.03- 61.0 64.0 61.0---
2024-07-24 06:00 amWNW 9.7 13.6----30.02+0.02 61.2 64.0 61.2---
2024-07-24 05:50 amWNW 9.7 11.7 5.9 108.0 NW30.02- 61.2 64.0 61.2---
2024-07-24 05:40 amWNW 9.7 13.6 5.9-8.0 NW30.02- 61.0 64.0 61.0---
2024-07-24 05:30 am W 9.7 13.6----30.01- 61.0 64.0 61.0---
2024-07-24 05:20 am W 9.7 13.6 5.6 117.8 NW30.01- 61.2 64.0 61.2---
2024-07-24 05:10 am W 9.7 11.7 5.6-7.8 NW30.01- 61.2 64.2 61.2---
2024-07-24 05:00 am W 9.7 11.7----30.01+0.02 61.2 64.2 61.2---
2024-07-24 04:50 am W 9.7 13.6 5.9 107.9 NW30.01- 61.2 64.2 61.2---
2024-07-24 04:40 am W 9.7 13.6 5.9-7.9 NW30.00- 61.2 64.2 61.2---
2024-07-24 04:30 amWNW 7.8 11.7----30.01- 61.2 64.2 61.2---
2024-07-24 04:20 amWNW 7.8 11.7 5.9 118.3 NW30.01- 61.2 64.2 61.2---
2024-07-24 04:10 amWNW 9.7 11.7 5.9-8.3 NW30.00- 61.2 64.2 61.2---
2024-07-24 04:00 amWNW 9.7 13.6----29.99+0.00 61.2 64.2 61.2---
2024-07-24 03:50 amWNW 9.7 11.7 6.2 108.2 NW30.00- 61.2 64.2 61.2---
2024-07-24 03:40 am NW 9.7 13.6 6.2-8.2 NW30.00- 61.2 64.2 61.2---
2024-07-24 03:30 amWNW 7.8 11.7----29.99- 61.3 64.2 61.3---
2024-07-24 03:20 amWNW 7.8 11.7 5.6 107.8 NW30.00- 61.2 64.2 61.2---
2024-07-24 03:10 amWNW 7.8 9.7 5.6-7.8 NW30.00- 61.2 64.2 61.2---
2024-07-24 03:00 am NW 7.8 11.7----30.00+0.01 61.0- 61.0---
2024-07-24 02:50 amWNW 7.8 11.7 5.9 108.0NNW30.00- 61.3 64.2 61.3---
2024-07-24 02:40 amWNW 9.7 11.7----29.99- 61.2- 61.2---
2024-07-24 02:30 am W 9.7 11.7----29.99- 61.2 64.2 61.2---
2024-07-24 02:20 am W 7.8 11.7 5.2 117.8 NW29.99- 61.2 64.0 61.2---
2024-07-24 02:10 am W 7.8 11.7 5.2-7.8 NW29.99- 61.3 64.0 61.3---
2024-07-24 02:00 am W 7.8 11.7----29.99+0.01 61.2 64.0 61.2---
2024-07-24 01:50 amWNW 9.7 11.7 6.2 108.2 NW29.98- 61.2 64.0 61.2---
2024-07-24 01:40 am W 9.7 11.7----29.98- 61.2 64.0 61.2---
2024-07-24 01:30 amWNW 9.7 11.7----29.98- 61.3 64.0 61.3---
2024-07-24 01:20 amWNW 7.8 11.7 5.9 108.4NNW29.99- 61.3 64.0 61.3---
2024-07-24 01:10 amWNW 9.7 13.6 5.9-8.4NNW29.99- 61.3 64.0 61.3---
2024-07-24 01:00 amWNW 7.8 11.7----29.99+0.02 61.3 64.0 61.3---
2024-07-24 12:50 am W 9.7 11.7 5.6 107.9 NW29.99- 61.3 64.0 61.3---
2024-07-24 12:40 am W 9.7 11.7----29.99- 61.3 64.0 61.3---
2024-07-24 12:30 amWNW 7.8 11.7----29.98- 61.3 64.0 61.3---
2024-07-24 12:20 amWNW 9.7 11.7 5.6 117.8 NW29.99- 61.2 64.0 61.2---
2024-07-24 12:10 amWNW 9.7 11.7 5.6-7.8 NW29.98- 61.2 64.0 61.2---
2024-07-24 12:00 amWNW 9.7 11.7----29.98+0.02 61.3 64.0 61.3---
2024-07-23 11:50 pmWNW 9.7 13.6 6.9 108.8 NW29.98- 61.3 64.0 61.3---
2024-07-23 11:40 pm W 9.7 13.6----29.98- 61.3 64.0 61.3---
2024-07-23 11:30 pm W 9.7 13.6----29.98- 61.3 64.0 61.3---
2024-07-23 11:20 pmWNW 7.8 11.7 5.9 108.3NNW29.98- 61.2 64.0 61.2---
2024-07-23 11:10 pm W 9.7 13.6 5.9-8.3NNW29.98- 61.3 63.9 61.3---
2024-07-23 11:00 pmWNW 7.8 11.7----29.98+0.03 61.2 63.9 61.2---
2024-07-23 10:50 pmWNW 7.8 9.7 5.6 118.4NNW29.98- 61.3 63.9 61.3---
2024-07-23 10:40 pmWNW 7.8 9.7----29.98- 61.3 63.9 61.3---
2024-07-23 10:30 pmWNW 5.8 9.7----29.98- 61.3 63.9 61.3---
2024-07-23 10:20 pmWNW 7.8 11.7 5.6 118.3 NW29.97- 61.3 63.9 61.3---
2024-07-23 10:10 pm NW 5.8 9.7 5.6-8.3 NW29.98- 61.2 63.9 61.2---
2024-07-23 10:00 pmWNW 7.8 9.7----29.97+0.04 61.5 63.9 61.5---
2024-07-23 09:50 pmWNW 7.8 11.7 5.2 107.8 NW29.98- 61.5 63.9 61.5---
2024-07-23 09:40 pmWNW 7.8 9.7----29.97- 61.5 63.9 61.5---
2024-07-23 09:30 pm W 7.8 9.7----29.97- 61.3 63.9 61.3---
2024-07-23 09:20 pm W 5.8 7.8 5.2 108.2 NW29.97- 61.5 63.9 61.5---
2024-07-23 09:10 pm W 7.8 9.7 5.2-8.2 NW29.96- 61.5 63.7 61.5---
2024-07-23 09:00 pm W 7.8 9.7----29.96+0.04 61.3 63.7 61.3---
2024-07-23 08:50 pm W 5.8 9.7 5.2 108.2 NW29.96- 61.5 63.7 61.5---
2024-07-23 08:40 pm W 5.8 7.8----29.96- 61.5 63.7 61.5---
2024-07-23 08:30 pmWNW 5.8 9.7----29.95- 61.3 63.7 61.3---
2024-07-23 08:20 pmWNW 5.8 9.7 5.2 117.9 NW29.96- 61.3 63.7 61.3---
2024-07-23 08:10 pmWNW 5.8 9.7 5.2-7.9 NW29.95- 61.3 63.7 61.3---
2024-07-23 08:00 pmWNW 7.8 9.7----29.94+0.02 61.5 63.7 61.5---
2024-07-23 07:50 pm NW 5.8 9.7 5.2 117.8 NW29.95- 61.5 63.7 61.5---
2024-07-23 07:40 pmWNW 7.8 9.7----29.94- 61.5 63.7 61.5---
2024-07-23 07:30 pm W 7.8 11.7----29.94- 61.5 63.7 61.5---
2024-07-23 07:20 pmWNW 9.7 11.7 5.9 108.0 NW29.93- 61.5 63.7 61.5---
2024-07-23 07:10 pmWNW 7.8 11.7 5.9-8.0 NW29.93- 61.5 63.7 61.5---
2024-07-23 07:00 pm W 7.8 9.7----29.93+0.00 61.5 63.7 61.5---
2024-07-23 06:50 pmWNW 7.8 11.7 5.2 107.7 NW29.93- 61.5 63.7 61.5---
2024-07-23 06:40 pmWNW 9.7 11.7----29.93- 61.5 63.7 61.5---
2024-07-23 06:30 pmWNW 9.7 13.6----29.92- 61.7 63.7 61.7---
2024-07-23 06:20 pm W 9.7 13.6 5.9 118.2 NW29.91- 61.7 63.7 61.7---
2024-07-23 06:10 pm W 9.7 13.6 5.9-8.2 NW29.92- 61.7 63.9 61.7---
2024-07-23 06:00 pm W 9.7 11.7----29.92-0.03 61.9 63.9 61.9---
2024-07-23 05:50 pm W 9.7 13.6 5.9 117.9 NW29.92- 62.1 63.9 62.1---
2024-07-23 05:40 pm W 9.7 11.7----29.92- 62.1 63.9 62.1---
2024-07-23 05:30 pm W 9.7 11.7----29.92- 61.9 63.9 61.9---
2024-07-23 05:20 pmWNW 7.8 9.7 5.6 107.9 NW29.91- 62.1 63.9 62.1---
2024-07-23 05:10 pmWNW 7.8 11.7 5.6-7.9 NW29.92- 61.9 63.9 61.9---
2024-07-23 05:00 pmWNW 9.7 11.7----29.92-0.03 61.9 63.9 61.9---
2024-07-23 04:50 pmWNW 9.7 11.7 5.9 107.6 NW29.92- 61.9 63.9 61.9---

Detailed Wave Summary
for 46047 as of (4:40 pm PDT)
2340 GMT on 07/24/2024:

These wave data are displayed in rounded times.

     

Click on the graph icon in the table below to see a time series plot of the last five days of that observation.

5-day plot - Significant Wave Height Significant Wave Height (WVHT): 5.9 ft
5-day plot - Swell Height Swell Height (SwH): 5.6 ft
5-day plot - Swell Period Swell Period (SwP): 10.8 sec
5-day plot - Swell Direction Swell Direction (SwD):NNW
5-day plot - Wind Wave Height Wind Wave Height (WWH): 2.0 ft
5-day plot - Wind Wave Period Wind Wave Period (WWP): 5.3 sec
5-day plot - Wind Wave Direction Wind Wave Direction (WWD): NW
5-day plot - Wave Steepness Wave Steepness (STEEPNESS): SWELL
5-day plot - Average Wave Period Average Wave Period (APD): 7.1 sec
Previous observations
TIME
(PDT)
5-day plot - Wave Height
WVHT
ft
5-day plot - Swell Height
SwH
ft
5-day plot - Swell Period
SwP
sec
5-day plot - Swell Direction
SwD
 
5-day plot - Wind Wave Height
WWH
ft
5-day plot - Wind Wave Period
WWP
sec
5-day plot - Wind Wave Direction
WWD
 
5-day plot - Wave Steepness
STEEPNESS
 
5-day plot - Average Wave Period
APD
sec
2024-07-24 04:10 pm 5.9 5.6 10.0 NW 2.0 3.2 NW SWELL 7.2
2024-07-24 03:40 pm 5.9 5.6 9.1NNW 2.0 3.0 NW AVERAGE 7.2
2024-07-24 03:10 pm 5.9 5.6 10.0NNW 2.0 3.4 WNW SWELL 7.2
2024-07-24 02:40 pm 5.6 5.2 10.0 NW 2.0 5.3 NW SWELL 7.3
2024-07-24 02:10 pm 5.2 4.9 10.8 NW 2.0 5.9 NW SWELL 7.6
2024-07-24 01:40 pm 5.9 5.6 10.8NNW 1.6 4.5 NW SWELL 7.9
2024-07-24 01:10 pm 5.2 5.2 10.8NNW 1.3 4.3 WNW SWELL 7.9
2024-07-24 12:40 pm 4.9 4.9 10.8 NW 1.3 4.0 WNW SWELL 7.6
2024-07-24 12:10 pm 5.2 5.2 10.8NNW 1.3 4.3 WNW SWELL 7.8
2024-07-24 11:40 am 5.2 5.2 10.8 NW 1.6 5.0 NW SWELL 8.0
2024-07-24 11:10 am 4.9 4.9 10.8NNW 1.3 4.2 NW SWELL 7.9
2024-07-24 10:40 am 4.9 4.6 10.8 NW 1.3 4.8 WNW SWELL 7.7
2024-07-24 10:10 am 4.9 4.9 10.8 NW 1.3 4.3 WNW SWELL 8.2
2024-07-24 09:40 am 5.2 5.2 10.0 NW 1.3 3.6 W SWELL 8.2
2024-07-24 09:10 am 5.2 4.9 11.4 NW 1.3 4.5 WNW SWELL 8.1
2024-07-24 08:40 am 5.9 5.9 16.0SSE 1.0 4.5 WNW SWELL 8.9
2024-07-24 08:10 am 5.2 5.2 10.0 NW 1.0 3.4 WNW SWELL 8.2
2024-07-24 07:40 am 5.2 4.9 10.8 NW 1.0 3.8 WNW SWELL 7.9
2024-07-24 07:10 am 5.2 4.9 10.8 NW 1.0 3.4 WNW SWELL 7.8
2024-07-24 06:40 am 5.2 5.2 10.0 NW 1.3 3.4 WNW SWELL 7.7
2024-07-24 06:10 am 5.2 5.2 10.8NNW 1.3 4.5 WNW SWELL 7.6
2024-07-24 05:40 am 5.9 5.9 10.0 NW 1.6 4.8 WNW SWELL 8.0
2024-07-24 05:10 am 5.6 5.2 10.8 NW 1.3 4.0 WNW SWELL 7.8
2024-07-24 04:40 am 5.9 5.6 10.0 NW 1.6 5.0 NW SWELL 7.9
2024-07-24 04:10 am 5.9 5.9 10.8 NW 1.3 4.2 WNW SWELL 8.3
2024-07-24 03:40 am 6.2 5.9 10.0 NW 1.3 4.5 WNW SWELL 8.2
2024-07-24 03:10 am 5.6 5.2 10.0 NW 1.3 3.4 WNW SWELL 7.8
2024-07-24 02:40 am 5.9 5.6 10.0NNW 1.3 4.3 NW SWELL 8.0
2024-07-24 02:10 am 5.2 5.2 10.8 NW 1.0 4.0 WNW SWELL 7.8
2024-07-24 01:40 am 6.2 5.9 10.0 NW 1.3 4.5 NW SWELL 8.2
2024-07-24 01:10 am 5.9 5.9 10.0NNW 1.3 4.0 WNW SWELL 8.4
2024-07-24 12:40 am 5.6 5.2 10.0 NW 1.3 4.2 NW SWELL 7.9
2024-07-24 12:10 am 5.6 5.2 11.4 NW 1.3 4.8 NW SWELL 7.8
2024-07-23 11:40 pm 6.9 6.6 10.0 NW 1.3 4.3 NW AVERAGE 8.8
2024-07-23 11:10 pm 5.9 5.9 10.0NNW 1.0 4.3 NW SWELL 8.3
2024-07-23 10:40 pm 5.6 5.6 11.4NNW 1.0 3.8 NW SWELL 8.4
2024-07-23 10:10 pm 5.6 5.6 10.8 NW 1.0 4.0 NW SWELL 8.3
2024-07-23 09:40 pm 5.2 4.9 10.0 NW 1.0 3.7 WNW SWELL 7.8
2024-07-23 09:10 pm 5.2 5.2 10.0 NW 1.0 4.0 WNW SWELL 8.2
2024-07-23 08:40 pm 5.2 5.2 10.0 NW 1.0 4.0 WNW SWELL 8.2
2024-07-23 08:10 pm 5.2 5.2 10.8 NW 1.0 3.7 NW SWELL 7.9
2024-07-23 07:40 pm 5.2 4.9 11.4 NW 1.0 4.0 WNW SWELL 7.8
2024-07-23 07:10 pm 5.9 5.9 10.0 NW 1.0 4.2 WNW SWELL 8.0
2024-07-23 06:40 pm 5.2 5.2 10.0 NW 1.0 3.7 WNW SWELL 7.7
2024-07-23 06:10 pm 5.9 5.9 10.8 NW 1.3 4.8 WNW SWELL 8.2
2024-07-23 05:40 pm 5.9 5.6 10.8 NW 1.3 4.0 WNW SWELL 7.9
2024-07-23 05:10 pm 5.6 5.6 10.0 NW 1.0 3.7 WNW SWELL 7.9

Plot of wave energy versus frequency (and period)